TimePST,TemperatureF,Dew PointF,Humidity,Sea Level PressureIn,VisibilityMPH,Wind Direction,Wind SpeedMPH,Gust SpeedMPH,PrecipitationIn,Events,Conditions,WindDirDegrees,DateUTC
12:56 AM,21.9,9.0,58,30.31,10.0,West,5.8,-,N/A,,Clear,280,2013-12-11 08:56:00
1:56 AM,21.0,10.0,63,30.31,10.0,Calm,Calm,-,N/A,,Clear,0,2013-12-11 09:56:00
2:56 AM,19.0,10.0,68,30.32,10.0,Calm,Calm,-,N/A,,Clear,0,2013-12-11 10:56:00
3:56 AM,19.0,10.0,68,30.32,10.0,Calm,Calm,-,N/A,,Clear,0,2013-12-11 11:56:00
4:56 AM,18.0,8.1,65,30.33,10.0,Calm,Calm,-,N/A,,Clear,0,2013-12-11 12:56:00
5:56 AM,21.0,10.0,63,30.36,10.0,SW,3.5,-,N/A,,Clear,230,2013-12-11 13:56:00
6:56 AM,18.0,10.0,71,30.39,10.0,Calm,Calm,-,N/A,,Clear,0,2013-12-11 14:56:00
7:56 AM,23.0,10.9,60,30.40,10.0,Calm,Calm,-,N/A,,Clear,0,2013-12-11 15:56:00
8:56 AM,28.9,10.0,45,30.42,10.0,Calm,Calm,-,N/A,,Clear,0,2013-12-11 16:56:00
9:56 AM,36.0,9.0,33,30.42,10.0,Calm,Calm,-,N/A,,Clear,0,2013-12-11 17:56:00
10:56 AM,39.0,6.1,26,30.39,10.0,Calm,Calm,-,N/A,,Clear,0,2013-12-11 18:56:00
11:56 AM,43.0,8.1,24,30.36,10.0,Calm,Calm,-,N/A,,Clear,0,2013-12-11 19:56:00
12:56 PM,48.0,7.0,19,30.32,10.0,Calm,Calm,-,N/A,,Clear,0,2013-12-11 20:56:00
1:56 PM,51.1,7.0,17,30.31,10.0,NNE,4.6,-,N/A,,Clear,20,2013-12-11 21:56:00
2:56 PM,52.0,6.1,16,30.30,10.0,NE,4.6,-,N/A,,Clear,50,2013-12-11 22:56:00
3:56 PM,51.1,10.0,19,30.30,10.0,Calm,Calm,-,N/A,,Clear,0,2013-12-11 23:56:00
4:56 PM,46.0,12.0,25,30.32,10.0,Calm,Calm,-,N/A,,Clear,0,2013-12-12 00:56:00
5:56 PM,35.1,12.9,40,30.35,10.0,West,3.5,-,N/A,,Clear,260,2013-12-12 01:56:00
6:56 PM,30.9,12.9,47,30.36,10.0,WNW,6.9,-,N/A,,Clear,290,2013-12-12 02:56:00
7:56 PM,30.0,10.9,45,30.37,10.0,West,3.5,-,N/A,,Clear,260,2013-12-12 03:56:00
8:56 PM,28.9,12.9,51,30.38,10.0,West,5.8,-,N/A,,Clear,280,2013-12-12 04:56:00
9:56 PM,27.0,12.0,53,30.38,10.0,West,4.6,-,N/A,,Clear,280,2013-12-12 05:56:00
10:56 PM,26.1,12.0,55,30.37,10.0,WNW,3.5,-,N/A,,Clear,300,2013-12-12 06:56:00
11:56 PM,25.0,12.0,58,30.36,10.0,West,5.8,-,N/A,,Clear,280,2013-12-12 07:56:00